WA8SIE Weather Reports


time (UTC)temp
F
wind
direction
speed
knots
gust
knots
rain 1hr
in
rain 24hr
in
rain mn
in
humidity
%
barometer
mb
20260831191011 90 25 0.0 3.5 0.00 0.00 0.00 61 1014.4
20260831190511 90 27 0.0 3.5 0.00 0.00 0.00 59 1014.4
20260831190011 90 332 0.0 5.2 0.00 0.00 0.00 61 1014.4
20260831185512 90 301 0.0 5.2 0.00 0.00 0.00 61 1014.5
20260831185013 90 316 2.6 4.3 0.00 0.00 0.00 61 1014.5
20260831184513 90 193 0.0 4.3 0.00 0.00 0.00 63 1014.5
20260831184011 89 325 0.0 3.5 0.00 0.00 0.00 63 1014.6
20260831183011 88 185 0.0 5.2 0.00 0.00 0.00 64 1014.6
20260831182511 88 226 0.0 3.5 0.00 0.00 0.00 63 1014.7
20260831182011 88 274 0.0 7.8 0.00 0.00 0.00 66 1014.7
20260831181511 88 338 0.0 7.8 0.00 0.00 0.00 65 1014.7
20260831170011 86 202 0.0 2.6 0.00 0.00 0.00 69 1015.2
20260831165511 85 201 0.0 2.6 0.00 0.00 0.00 67 1015.3
20260831165011 85 202 0.9 3.5 0.00 0.00 0.00 71 1015.3
20260831164512 84 202 0.0 3.5 0.00 0.00 0.00 70 1015.3
20260831163511 84 182 0.0 7.8 0.00 0.00 0.00 71 1015.5
20260831163011 84 183 0.0 7.8 0.00 0.00 0.00 75 1015.5
20260831162511 83 193 0.0 1.7 0.00 0.00 0.00 78 1015.6
20260831162013 82 205 0.0 1.7 0.00 0.00 0.00 79 1015.6
20260831161513 82 205 0.0 1.7 0.00 0.00 0.00 81 1015.6
20260831161011 81 205 0.0 2.6 0.00 0.00 0.00 81 1015.6
20260831160511 81 205 0.0 2.6 0.00 0.00 0.00 83 1015.6
20260831160011 80 217 0.0 0.0 0.00 0.00 0.00 83 1015.6
20260831155511 80 217 0.0 0.0 0.00 0.00 0.00 83 1015.6
20260831154511 80 216 0.0 2.6 0.00 0.00 0.00 82 1015.6
20260831154011 80 217 0.0 2.6 0.00 0.00 0.00 81 1015.8
20260831153511 80 217 0.0 2.6 0.00 0.00 0.00 80 1015.8
20260831153011 80 127 0.0 0.0 0.00 0.00 0.00 80 1015.8
20260831152513 80 127 0.0 0.0 0.00 0.00 0.00 80 1015.8
20260831152011 80 127 0.0 0.0 0.00 0.00 0.00 81 1015.8
20260831151012 80 127 0.0 0.0 0.00 0.00 0.00 81 1015.9
20260831150511 80 127 0.0 0.0 0.00 0.00 0.00 81 1015.9
20260831150012 79 127 0.0 0.0 0.00 0.00 0.00 82 1015.9
20260831145511 79 127 0.0 0.0 0.00 0.00 0.00 83 1015.7
20260831145011 79 127 0.0 1.7 0.00 0.00 0.00 82 1015.7
20260831144011 78 126 0.0 2.6 0.00 0.00 0.00 85 1015.7
20260831143511 78 34 1.7 1.7 0.00 0.00 0.00 88 1015.7
20260831143012 78 14 0.0 0.0 0.00 0.00 0.00 90 1015.7
20260831142511 77 14 0.0 1.7 0.00 0.00 0.00 92 1015.5
20260831142011 76 14 0.0 1.7 0.00 0.00 0.00 92 1015.5
20260831141511 76 15 0.0 0.9 0.00 0.00 0.00 94 1015.5
20260831140011 75 14 0.0 0.0 0.00 0.00 0.00 97 1015.4
20260831135512 75 13 0.0 0.0 0.00 0.00 0.00 98 1015.5
20260831135011 74 14 0.0 2.6 0.00 0.00 0.00 99 1015.5
20260831134511 74 14 0.0 2.6 0.00 0.00 0.00 100 1015.5
20260831134011 74 8 0.9 2.6 0.00 0.00 0.00 100 1015.7
20260831133511 74 2 0.0 1.7 0.00 0.00 0.00 100 1015.7
20260831133011 74 2 0.0 1.7 0.00 0.00 0.00 100 1015.7
20260831132512 73 1 0.0 0.0 0.00 0.00 0.00 100 1015.7
20260831132010 73 1 0.0 0.0 0.00 0.00 0.00 100 1015.7
20260831131510 73 1 0.0 0.0 0.00 0.00 0.00 100 1015.7
20260831131011 73 2 0.0 0.0 0.00 0.00 0.00 100 1015.7
20260831130511 72 2 0.0 0.0 0.00 0.00 0.00 100 1015.7
20260831125011 72 1 0.0 0.0 0.00 0.00 0.00 100 1015.4
20260831124511 72 1 0.0 0.0 0.00 0.00 0.00 100 1015.4
20260831124011 72 2 0.0 0.0 0.00 0.00 0.00 100 1015.5
20260831123511 71 1 0.0 0.0 0.00 0.00 0.00 100 1015.5
20260831123011 71 1 0.0 0.0 0.00 0.00 0.00 100 1015.5
20260831122511 71 1 0.0 0.0 0.00 0.00 0.00 100 1015.5
20260831122011 71 1 0.0 0.0 0.00 0.00 0.00 100 1015.5
20260831121511 70 1 0.0 0.0 0.00 0.00 0.00 100 1015.5
20260831121010 70 1 0.0 0.0 0.00 0.00 0.00 100 1015.3
20260831120512 70 1 0.0 0.0 0.00 0.00 0.00 100 1015.3
20260831120011 70 1 0.0 0.0 0.00 0.00 0.00 100 1015.3
20260831115511 70 1 0.0 0.0 0.00 0.00 0.00 100 1015.1
20260831113511 70 1 0.0 0.0 0.00 0.00 0.00 100 1014.9
20260831113011 69 1 0.0 0.0 0.00 0.00 0.00 100 1014.9
20260831112510 69 1 0.0 0.0 0.00 0.00 0.00 100 1014.9
20260831110010 69 1 0.0 0.0 0.00 0.00 0.00 100 1014.9
20260831105511 69 1 0.0 0.0 0.00 0.00 0.00 100 1014.8
20260831104011 69 1 0.0 0.0 0.00 0.00 0.00 100 1014.8
20260831103512 69 2 0.0 0.0 0.00 0.00 0.00 100 1014.8
20260831103010 69 1 0.0 0.0 0.00 0.00 0.00 100 1014.8
20260831102510 69 1 0.0 0.0 0.00 0.00 0.00 100 1014.7
20260831102011 69 1 0.0 0.0 0.00 0.00 0.00 100 1014.7
20260831101510 69 1 0.0 0.0 0.00 0.00 0.00 100 1014.7
20260831101010 69 1 0.0 0.0 0.00 0.00 0.00 100 1014.5
20260831100010 69 1 0.0 0.0 0.00 0.00 0.00 100 1014.5
20260831095512 70 1 0.0 0.0 0.00 0.00 0.00 100 1014.4
20260831095010 70 1 0.0 0.0 0.00 0.00 0.00 100 1014.4
20260831094510 70 1 0.0 0.0 0.00 0.00 0.00 100 1014.4
20260831093510 70 1 0.0 1.7 0.00 0.00 0.00 100 1014.3
20260831093010 70 1 1.7 1.7 0.00 0.00 0.00 100 1014.3
20260831092510 70 0.0 0.0 0.00 0.00 0.00 100 1014.3
20260831092010 70 0.0 0.0 0.00 0.00 0.00 100 1014.3
20260831091010 70 0.0 0.0 0.00 0.00 0.00 100 1014.3
20260831090510 70 0.0 0.0 0.00 0.00 0.00 100 1014.3
20260831090010 70 0.0 1.7 0.00 0.00 0.00 100 1014.3
20260831085510 70 0.0 1.7 0.00 0.00 0.00 100 1014.3
20260831084510 70 0.0 0.0 0.00 0.00 0.00 100 1014.3
20260831083510 70 0.0 0.0 0.00 0.00 0.00 100 1014.2
20260831083010 71 0.0 0.0 0.00 0.00 0.00 100 1014.2
20260831082010 71 0.0 0.0 0.00 0.00 0.00 100 1014.1
20260831081510 71 0.0 0.0 0.00 0.00 0.00 100 1014.1
20260831081010 71 1 0.0 0.0 0.00 0.00 0.00 100 1013.9
20260831080512 71 0.0 0.0 0.00 0.00 0.00 100 1013.9
20260831080010 71 1 0.0 0.0 0.00 0.00 0.00 100 1013.9
20260831075011 71 0.0 0.0 0.00 0.00 0.00 100 1013.9
20260831074513 71 0.0 0.0 0.00 0.00 0.00 100 1013.9
20260831074013 71 1 0.0 0.0 0.00 0.00 0.00 100 1013.9
20260831073511 71 0.0 0.0 0.00 0.00 0.00 100 1013.9
20260831073011 71 0.0 0.0 0.00 0.00 0.00 100 1013.9
20260831072511 71 0.0 0.0 0.00 0.00 0.00 100 1013.8
20260831072011 72 1 0.0 0.0 0.00 0.00 0.00 100 1013.8
20260831071511 72 0.0 0.0 0.00 0.00 0.00 100 1013.8
20260831071011 72 0.0 0.0 0.00 0.00 0.00 100 1013.9
20260831070511 72 1 0.0 0.0 0.00 0.00 0.00 100 1013.9
20260831070011 72 1 0.0 0.0 0.00 0.00 0.00 100 1013.9
20260831065511 72 0.0 0.0 0.00 0.00 0.00 100 1014.0
20260831065011 72 0.0 0.0 0.00 0.00 0.00 100 1014.0
20260831064513 72 0.0 0.0 0.00 0.00 0.00 100 1014.0
20260831064011 72 0.0 0.0 0.00 0.00 0.00 100 1014.0
20260831063512 72 1 0.0 0.0 0.00 0.00 0.00 100 1014.0
20260831062512 72 0.0 0.0 0.00 0.00 0.00 100 1013.9
20260831062011 72 1 0.0 0.0 0.00 0.00 0.00 100 1013.9
20260831061511 72 0.0 0.0 0.00 0.00 0.00 100 1013.9
20260831061011 72 0.0 0.0 0.00 0.00 0.00 100 1014.2
20260831060511 72 0.0 0.0 0.00 0.00 0.00 100 1014.2
20260831060011 72 1 0.0 0.0 0.00 0.00 0.00 100 1014.2
20260831055511 73 0.0 0.0 0.00 0.00 0.00 100 1014.1
20260831055011 73 0.0 0.0 0.00 0.00 0.00 100 1014.1
20260831054011 73 0.0 0.0 0.00 0.00 0.00 100 1014.1
20260831052013 73 0.0 0.0 0.00 0.00 0.00 100 1014.2
20260831051511 73 0.0 0.0 0.00 0.00 0.00 100 1014.2
20260831051012 74 0.0 0.0 0.00 0.00 0.00 100 1014.3
20260831050511 74 0.0 0.0 0.00 0.00 0.00 100 1014.3
20260831050013 74 0.0 0.0 0.00 0.00 0.00 100 1014.3
20260831045011 74 0.0 0.0 0.00 0.00 0.00 100 1014.3
20260831044513 74 0.0 0.0 0.00 0.00 0.00 100 1014.3
20260831044011 74 0.0 0.0 0.00 0.00 0.00 100 1014.4
20260831043511 74 0.0 0.0 0.00 0.00 0.00 100 1014.4
20260831043012 74 0.0 0.0 0.00 0.00 0.00 100 1014.4
20260831042511 74 0.0 0.0 0.00 0.00 0.00 100 1014.4
20260831042011 74 0.0 0.0 0.00 0.00 0.00 99 1014.4
20260831040511 75 0.0 0.0 0.00 0.00 0.00 99 1014.5
20260831040011 75 1 0.0 0.0 0.00 0.00 0.00 99 1014.5
20260831035511 75 0.0 0.0 0.00 0.00 0.00 99 1014.5
20260831035011 75 1 0.0 0.0 0.00 0.00 0.00 98 1014.5
20260831034511 75 0.0 0.0 0.00 0.00 0.00 98 1014.5
20260831034012 75 0.0 0.0 0.00 0.00 0.00 98 1014.6
20260831033511 75 0.0 0.0 0.00 0.00 0.00 98 1014.6
20260831033011 75 1 0.0 0.0 0.00 0.00 0.00 98 1014.6
20260831032011 76 1 0.0 0.0 0.00 0.00 0.00 98 1014.5
20260831031511 76 0.0 0.0 0.00 0.00 0.00 98 1014.5
20260831031011 76 1 0.0 0.0 0.00 0.00 0.00 98 1014.6
20260831030511 76 1 0.0 0.0 0.00 0.00 0.00 98 1014.6
20260831030012 76 0.0 0.0 0.00 0.00 0.00 97 1014.6
20260831025011 76 0.0 0.0 0.00 0.00 0.00 97 1014.4
20260831024511 76 0.0 0.0 0.00 0.00 0.00 97 1014.4
20260831024011 76 0.0 0.0 0.00 0.00 0.00 97 1014.4
20260831023511 76 0.0 0.0 0.00 0.00 0.00 97 1014.4
20260831022512 76 0.0 0.0 0.00 0.00 0.00 97 1014.4
20260831022010 76 0.0 0.0 0.00 0.00 0.00 97 1014.4
20260831021511 76 0.0 0.0 0.00 0.00 0.00 96 1014.4
20260831021011 76 0.0 0.0 0.00 0.00 0.00 96 1014.6
20260831020510 76 0.0 0.0 0.00 0.00 0.00 96 1014.6
20260831014511 76 0.0 0.0 0.00 0.00 0.00 95 1014.6
20260831014010 76 0.0 0.0 0.00 0.00 0.00 95 1014.5
20260831013510 76 1 0.0 0.0 0.00 0.00 0.00 95 1014.5
20260831013011 77 0.0 0.0 0.00 0.00 0.00 94 1014.5
20260831012510 77 0.0 0.0 0.00 0.00 0.00 94 1014.2
20260831012010 77 0.0 0.0 0.00 0.00 0.00 94 1014.2
20260831011511 77 0.0 0.0 0.00 0.00 0.00 93 1014.2
20260831011011 77 1 0.0 0.0 0.00 0.00 0.00 93 1014.2
20260831010511 77 0.0 0.0 0.00 0.00 0.00 92 1014.2
20260831005510 78 0.0 0.0 0.00 0.00 0.00 92 1013.8
20260831005011 78 0.0 0.0 0.00 0.00 0.00 91 1013.8
20260831004510 78 1 0.0 0.0 0.00 0.00 0.00 91 1013.8
20260831004010 78 0.0 0.9 0.00 0.00 0.00 90 1013.8
20260831003510 78 0.0 0.9 0.00 0.00 0.00 90 1013.8
20260831003011 78 0.0 0.0 0.00 0.00 0.00 89 1013.8
20260831002512 78 0.0 0.0 0.00 0.00 0.00 88 1013.7
20260831002010 79 0.0 0.0 0.00 0.00 0.00 87 1013.7
20260831001512 79 0.0 0.0 0.00 0.00 0.00 86 1013.7
20260831001010 79 0.0 0.0 0.00 0.00 0.00 85 1013.6
20260831000510 80 1 0.0 0.0 0.00 0.00 0.00 84 1013.6
20260831000012 80 0.0 0.0 0.00 0.00 0.00 83 1013.6
20260830235510 80 0.0 0.0 0.00 0.00 0.00 82 1013.6
20260830235010 80 1 0.0 0.0 0.00 0.00 0.00 81 1013.6
20260830234510 80 1 0.0 0.0 0.00 0.00 0.00 81 1013.6
20260830234010 80 0.0 0.9 0.00 0.00 0.00 80 1013.3
20260830233510 80 1 0.0 0.9 0.00 0.00 0.00 80 1013.3
20260830233011 81 0.0 0.0 0.00 0.00 0.00 79 1013.3
20260830232510 81 0.0 0.0 0.00 0.00 0.00 79 1013.2
20260830232010 81 0.0 0.0 0.00 0.00 0.00 78 1013.2
20260830231511 81 0.0 0.0 0.00 0.00 0.00 80 1013.2
20260830231011 81 0.0 0.0 0.00 0.00 0.00 80 1013.2
20260830230511 81 0.0 0.0 0.00 0.00 0.00 79 1013.2
20260830230010 82 0.0 0.0 0.00 0.00 0.00 78 1013.2
20260830225511 82 1 0.0 0.0 0.00 0.00 0.00 77 1013.3
20260830225011 82 1 0.0 0.0 0.00 0.00 0.00 76 1013.3
20260830224511 82 0.0 0.0 0.00 0.00 0.00 75 1013.3
20260830224011 83 0.0 0.0 0.00 0.00 0.00 75 1013.4
20260830223511 83 1 0.0 0.0 0.00 0.00 0.00 74 1013.4
20260830223013 83 1 0.0 0.0 0.00 0.00 0.00 75 1013.4
20260830222511 84 0.0 0.0 0.00 0.00 0.00 73 1013.6
20260830222013 84 1 0.0 0.0 0.00 0.00 0.00 70 1013.6
20260830221513 84 0.0 0.0 0.00 0.00 0.00 67 1013.6
20260830221011 84 1 0.0 0.0 0.00 0.00 0.00 66 1013.5
20260830220511 84 1 0.0 0.0 0.00 0.00 0.00 67 1013.5
20260830220011 84 1 0.0 0.0 0.00 0.00 0.00 65 1013.5
20260830215511 84 0.0 3.5 0.00 0.00 0.00 64 1013.6
20260830215011 84 8 0.0 3.5 0.00 0.00 0.00 65 1013.6
20260830214513 84 278 0.0 3.5 0.00 0.00 0.00 65 1013.6
20260830214011 85 274 0.9 3.5 0.00 0.00 0.00 66 1013.7
20260830213512 85 285 0.0 0.0 0.00 0.00 0.00 66 1013.7
20260830213011 85 285 0.0 2.6 0.00 0.00 0.00 63 1013.7
20260830212511 86 285 0.0 2.6 0.00 0.00 0.00 63 1013.6
20260830212012 86 326 0.0 2.6 0.00 0.00 0.00 63 1013.6
20260830211511 85 323 0.0 3.5 0.00 0.00 0.00 62 1013.6
20260830211011 85 323 0.0 4.3 0.00 0.00 0.00 61 1013.6
20260830210513 85 326 0.0 4.3 0.00 0.00 0.00 61 1013.6
20260830210011 85 299 2.6 3.5 0.00 0.00 0.00 64 1013.6
20260830205011 85 312 0.0 0.0 0.00 0.00 0.00 66 1013.7
20260830204511 84 312 0.0 0.0 0.00 0.00 0.00 65 1013.7
20260830204011 84 313 0.0 3.5 0.00 0.00 0.00 67 1013.7
20260830203511 84 313 0.0 3.5 0.00 0.00 0.00 68 1013.7
20260830203011 84 312 1.7 0.0 0.00 0.00 0.00 68 1013.7
20260830202511 83 312 0.0 0.0 0.00 0.00 0.00 68 1014.2
20260830202011 83 312 0.0 0.0 0.00 0.00 0.00 69 1014.2
20260830201511 83 317 0.0 6.1 0.00 0.00 0.00 69 1014.2
20260830200511 84 319 0.0 10.4 0.00 0.00 0.00 66 1014.2
20260830200011 85 333 1.7 8.7 0.00 0.00 0.00 66 1014.2
20260830195511 86 217 0.0 8.7 0.00 0.00 0.00 65 1014.0
20260830195013 86 285 1.7 7.8 0.00 0.00 0.00 63 1014.0
20260830194513 87 256 0.0 13.9 0.00 0.00 0.00 61 1014.0
20260830194011 89 270 3.5 13.9 0.00 0.00 0.00 59 1014.0
20260830193011 90 276 0.0 0.9 0.00 0.00 0.00 58 1014.0
20260830192512 90 265 0.0 1.7 0.00 0.00 0.00 57 1014.0
20260830192011 91 313 0.0 1.7 0.00 0.00 0.00 55 1014.0
20260830191511 91 191 0.0 1.7 0.00 0.00 0.00 59 1014.0